Weather History for Shannon, Ireland

Change the Weather History Date:

Monday, August 19, 2013

  Actual Average Record
Temperature  
Mean Temperature 60 °F -  
Max Temperature 66 °F 64 °F 75 °F (1997)
Min Temperature 53 °F 51 °F 33 °F (2008)
Degree Days  
Heating Degree Days 6    
Growing Degree Days 10 (Base 50)    
Moisture  
Dew Point 54 °F    
Average Humidity 80    
Maximum Humidity 88    
Minimum Humidity 59    
Precipitation  
Precipitation 0.00 in 0.11 in - ()
Sea Level Pressure  
Sea Level Pressure 30.13 in    
Wind  
Wind Speed 9 mph ()    
Max Wind Speed 20 mph    
Max Gust Speed -    
Visibility 6.7 miles    
Events Rain    
Averages and records for this station are not official NWS values.
T = Trace of Precipitation, MM = Missing Value Source: Averaged Metar Reports

Daily Weather History Graph

Daily Weather History Graph

Search for Another Location

Airport:

Trip Planner

Search our weather history database for the weather conditions in past years. The results will help you decide how hot, cold, wet, or windy it might be!

Date:

Astronomy

Aug. 19, 2013 Rise Set
Actual Time 6:24 AM IST 8:52 PM IST
Civil Twilight 5:46 AM IST 9:30 PM IST
Nautical Twilight 4:57 AM IST 10:19 PM IST
Astronomical Twilight 3:59 AM IST 11:16 PM IST
Moon 7:35 PM IST (8/19) 4:21 AM IST (8/19)
Length of Visible Light 15h 44m
Length of Day
14h 28m
Waxing Gibbous, 96% of the Moon is Illuminated
Aug 19
Waxing Gibbous
Aug 21
Full
Aug 28
Last Quarter
Sep 5
New
Sep 12
First Quarter

Hourly Weather History & Observations

Time (IST) Temp. Dew Point Humidity Pressure Visibility Wind Dir Wind Speed Gust Speed Precip Events Conditions
12:00 AM 55.4 °F 51.8 °F 88% 29.95 in 6.2 mi WSW 5.8 mph - N/A   Mostly Cloudy
12:30 AM 55.4 °F 50.0 °F 82% 29.98 in 6.2 mi SW 4.6 mph - N/A   Mostly Cloudy
1:00 AM 54 °F 51 °F 85% 29.99 in 16 mi WSW 6.7 mph - -   Partly Cloudy
1:00 AM 53.6 °F 50.0 °F 88% 29.98 in 6.2 mi WSW 5.8 mph - N/A   Scattered Clouds
1:30 AM 55.4 °F 51.8 °F 88% 29.98 in 6.2 mi WSW 5.8 mph - N/A   Partly Cloudy
2:00 AM 55.4 °F 50.0 °F 82% 29.98 in 6.2 mi WSW 9.2 mph - N/A   Scattered Clouds
2:30 AM 55.4 °F 51.8 °F 88% 30.01 in 6.2 mi WSW 8.1 mph - N/A   Mostly Cloudy
3:00 AM 57.2 °F 51.8 °F 82% 30.01 in 6.2 mi SSW 6.9 mph - N/A   Mostly Cloudy
3:30 AM 57.2 °F 51.8 °F 82% 30.01 in 6.2 mi SW 10.4 mph - N/A   Mostly Cloudy
4:00 AM 57.2 °F 51.8 °F 82% 30.01 in 6.2 mi SW 10.4 mph - N/A   Mostly Cloudy
4:30 AM 57.2 °F 53.6 °F 88% 30.01 in 6.2 mi SW 6.9 mph - N/A   Mostly Cloudy
5:00 AM 57.2 °F 53.6 °F 88% 30.04 in 6.2 mi SSW 6.9 mph - N/A   Mostly Cloudy
5:30 AM 57.2 °F 51.8 °F 82% 30.04 in 6.2 mi WSW 10.4 mph - N/A   Mostly Cloudy
6:00 AM 57.2 °F 51.8 °F 82% 30.04 in 6.2 mi WSW 10.4 mph - N/A   Mostly Cloudy
6:30 AM 57.2 °F 53.6 °F 88% 30.04 in 6.2 mi SW 10.4 mph - N/A   Scattered Clouds
7:00 AM 58 °F 54 °F 83% 30.07 in 12 mi SW 11.2 mph - -   Partly Cloudy
7:00 AM 57.2 °F 53.6 °F 88% 30.06 in 6.2 mi SW 10.4 mph - N/A   Mostly Cloudy
7:30 AM 59.0 °F 55.4 °F 88% 30.06 in 6.2 mi SW 10.4 mph - N/A   Mostly Cloudy
8:00 AM 59.0 °F 55.4 °F 88% 30.09 in 6.2 mi SW 12.7 mph - N/A   Mostly Cloudy
8:30 AM 59.0 °F 55.4 °F 88% 30.09 in 6.2 mi SW 10.4 mph - N/A   Mostly Cloudy
9:00 AM 60.8 °F 55.4 °F 82% 30.09 in 6.2 mi SW 11.5 mph - N/A   Mostly Cloudy
9:30 AM 59.0 °F 55.4 °F 88% 30.12 in 6.2 mi West 13.8 mph - N/A   Mostly Cloudy
10:00 AM 59.0 °F 53.6 °F 82% 30.12 in 6.2 mi West 13.8 mph - N/A   Mostly Cloudy
10:30 AM 60.8 °F 55.4 °F 82% 30.12 in 6.2 mi WSW 10.4 mph - N/A Rain Light Rain Showers
11:00 AM 60.8 °F 55.4 °F 82% 30.12 in 6.2 mi WSW 15.0 mph - N/A   Mostly Cloudy
11:30 AM 64.4 °F 55.4 °F 73% 30.12 in 6.2 mi WSW 16.1 mph - N/A   Scattered Clouds
12:00 PM 64.4 °F 53.6 °F 68% 30.15 in 6.2 mi West 12.7 mph - N/A   Scattered Clouds
12:30 PM 64.4 °F 50.0 °F 59% 30.15 in 6.2 mi WSW 12.7 mph - N/A   Scattered Clouds
1:00 PM 63 °F 53 °F 60% 30.18 in 12 mi WSW 20.1 mph - -   Partly Cloudy
1:00 PM 62.6 °F 51.8 °F 68% 30.18 in 6.2 mi WSW 19.6 mph - N/A   Mostly Cloudy
1:30 PM 62.6 °F 53.6 °F 72% 30.18 in 6.2 mi WSW 13.8 mph - N/A Rain Light Rain Showers
2:00 PM 64.4 °F 53.6 °F 68% 30.18 in 6.2 mi WSW 17.3 mph - N/A   Mostly Cloudy
2:30 PM 64.4 °F 51.8 °F 64% 30.18 in 6.2 mi SW 19.6 mph - N/A   Scattered Clouds
3:00 PM 64.4 °F 53.6 °F 68% 30.18 in 6.2 mi WSW 17.3 mph - N/A   Scattered Clouds
3:30 PM 64.4 °F 53.6 °F 68% 30.18 in 6.2 mi WSW 19.6 mph - N/A   Mostly Cloudy
4:00 PM 64.4 °F 53.6 °F 68% 30.18 in 6.2 mi WSW 18.4 mph - N/A   Mostly Cloudy
4:30 PM 64.4 °F 57.2 °F 77% 30.21 in 6.2 mi SW 18.4 mph - N/A   Mostly Cloudy
5:00 PM 64.4 °F 53.6 °F 68% 30.21 in 6.2 mi WSW 11.5 mph - N/A   Mostly Cloudy
5:30 PM 62.6 °F 53.6 °F 72% 30.21 in 6.2 mi WSW 15.0 mph - N/A   Mostly Cloudy
6:00 PM 62.6 °F 55.4 °F 77% 30.21 in 6.2 mi WSW 13.8 mph - N/A   Mostly Cloudy
6:30 PM 62.6 °F 55.4 °F 77% 30.21 in 6.2 mi WSW 11.5 mph - N/A   Mostly Cloudy
7:00 PM 61 °F 54 °F 70% 30.25 in 12 mi WSW 11.2 mph - - Rain Light Rain
7:00 PM 60.8 °F 53.6 °F 77% 30.24 in 6.2 mi WSW 11.5 mph - N/A   Mostly Cloudy
7:30 PM 60.8 °F 55.4 °F 82% 30.24 in 6.2 mi WSW 9.2 mph - N/A   Mostly Cloudy
8:00 PM 60.8 °F 55.4 °F 82% 30.24 in 6.2 mi WSW 8.1 mph - N/A   Mostly Cloudy
8:30 PM 60.8 °F 55.4 °F 82% 30.24 in 6.2 mi WSW 8.1 mph - N/A   Mostly Cloudy
9:00 PM 60.8 °F 55.4 °F 82% 30.27 in 6.2 mi WSW 9.2 mph - N/A   Mostly Cloudy
9:30 PM 60.8 °F 57.2 °F 88% 30.27 in 6.2 mi WSW 6.9 mph - N/A   Mostly Cloudy
10:00 PM 60.8 °F 57.2 °F 88% 30.27 in 6.2 mi SW 8.1 mph - N/A   Mostly Cloudy
10:30 PM 60.8 °F 57.2 °F 88% 30.27 in 6.2 mi SW 10.4 mph - N/A   Mostly Cloudy
11:00 PM 60.8 °F 57.2 °F 88% 30.27 in 6.2 mi SW 10.4 mph - N/A   Mostly Cloudy
11:30 PM 60.8 °F 57.2 °F 88% 30.27 in 6.2 mi SW 9.2 mph - N/A   Mostly Cloudy